Regional Weather Roundup
Issued by NWS Wakefield, VA

Home | Current Version | Previous Version | Graphics & Text | Print | Product List | Glossary On
Versions: 1 2 3 4 5 6 7 8 9 10 11 12 13 14 15 16 17 18 19 20 21 22 23 24 25 26 27
000
ASUS41 KAKQ 241115
RWRAKQ

REGIONAL WEATHER ROUNDUP
NATIONAL WEATHER SERVICE WAKEFIELD VA
700 AM EDT WED MAY 24 2017

Note: "fair" indicates few or no clouds below 12,000 feet with no
significant weather and/or obstructions to visibility. * = Denotes
station may not report precipitation (e.g., rain,snow,etc.),
thunder or fog.

VAZ042-051-052>054-056-241200-
NORTHERN VIRGINIA

CITY           SKY/WX    TMP DP  RH WIND       PRES   REMARKS
WASH NATIONAL  CLOUDY    58  54  86 NE8       29.73R
DULLES         CLOUDY    57  54  89 E3        29.74R
FORT BELVOIR   CLOUDY    57  55  93 CALM      29.73R
QUANTICO       CLOUDY    59  57  93 E3        29.75R
FREDERICKSBRG* CLOUDY    57  57 100 NW3       29.73R
STAFFORD*      CLOUDY    55  55 100 CALM      29.78R FOG
WARRENTON      LGT RAIN  58  55  90 CALM      29.74R
CULPEPER*      CLOUDY    57  56  97 CALM      29.76R
MANASSAS*      LGT RAIN  57  55  93 CALM      29.75R
LEESBURG*      CLOUDY    59  59 100 CALM      29.75R
WINCHESTER     CLOUDY    54  54 100 CALM      29.74R FOG
FRONT ROYAL*   CLOUDY    55  55 100 CALM      29.73R
LURAY*         CLOUDY    55  55 100 CALM      29.73R FOG
$$

VAZ048-049-060>072-079>083-241200-
CENTRAL AND SOUTH CENTRAL VIRGINIA

CITY           SKY/WX    TMP DP  RH WIND       PRES   REMARKS
RICHMOND       CLOUDY    58  58 100 NE7       29.70R FOG
CHESTERFIELD*  NOT AVBL
PETERSBURG*    CLOUDY    58  57  97 CALM      29.71R
HANOVER        CLOUDY    58  55  90 VRB3      29.72R FOG
TAPPAHANNOCK*  CLOUDY    59  59 100 N3        29.71R
QUINTON*       CLOUDY    58  58 100 NE3       29.70R FOG
CHARLOTTSVILLE PTSUNNY   58  56  93 N5        29.72S
GORDONSVILLE*  CLOUDY    56  56 100 NE3       29.72S
ORANGE*        CLOUDY    55  54  94 CALM      29.74R
LOUISA*        CLOUDY    59  57  94 NE5       29.71F FOG
BUMPASS*       CLOUDY    56  56 100 CALM      29.73R
FARMVILLE*     CLOUDY    58  55  91 NE3       29.71R
CREWE*         CLOUDY    57  53  86 NE3       29.70S
FORT PICKETT*  CLOUDY   N/A N/A N/A NE8       29.70R
CHASE CITY*    CLOUDY    58  56  94 NE5       29.70R
CLARKSVILLE*   CLOUDY    59  59 100 NE3       29.68S
SOUTH HILL*    CLOUDY    58  58 100 N7        29.74S
LAWRENCEVILLE* CLOUDY    59  58  97 MISG      29.69S
EMPORIA*       DRIZZLE   59  59 100 N5        29.70S
$$

VAZ088>098-241200-
SOUTHEAST VIRGINIA

CITY           SKY/WX    TMP DP  RH WIND       PRES   REMARKS
NORFOLK        CLOUDY    60  59  96 NE10      29.67R
VIRGINIA BEACH CLOUDY    59  57  93 NE9       29.66R
NORFOLK NAVAL  NOT AVBL
WEST POINT*    CLOUDY    58  58  97 NE5       29.71R
SALUDA*        CLOUDY    58  58 100 NE3       29.70R
NEWPORT NEWS   LGT RAIN  60  59  96 N7        29.69R FOG
LANGLEY AFB    CLOUDY    61  61 100 NE6       29.68R FOG
FORT EUSTIS    CLOUDY    61  59  94 NE5       29.66R FOG
WILLIAMSBURG*  CLOUDY    61  61 100 CALM      29.70S
HR EXEC AP*    CLOUDY    63  59  88 NE5       29.66R
FRANKLIN*      CLOUDY    60  60  97 N3        29.68F FOG
US460-WAKEFLD  CLOUDY    60  59  96 VRB5      29.69S FOG
$$

VAZ020-022-025-037-045-241200-
WEST CENTRAL AND SOUTHWEST VIRGINIA

CITY           SKY/WX    TMP DP  RH WIND       PRES   REMARKS
STAUNTON*      CLOUDY    56  54  94 CALM      29.74S
WAYNESBORO*    CLOUDY    54  54 100 S6        29.72F
HOT SPRINGS VA RAIN      45  43  93 E8        29.73R VSB<1/4
LYNCHBURG      CLOUDY    57  56  96 NE9       29.72R
DANVILLE       CLOUDY    59  59 100 NE9       29.69R FOG
SOUTH BOSTON*  CLOUDY    59  58  95 NE5       29.69R
MARTINSVILLE   CLOUDY    58  57  97 CALM      29.71S FOG
ROANOKE        DRIZZLE   58  58 100 SE6       29.72R
BLACKSBURG     CLOUDY    56  55  95 E7        29.73S
DUBLIN*        RAIN      57  54  92 E6        29.71S VSB 1
MARION*        FOG       57  54  90 E5        29.71S VSB 1/2
HILLSVILLE*    RAIN      56  52  86 CALM      29.69F VSB 3/4
RICHLANDS*     PTSUNNY   56  56 100 SE6       29.65F
WISE*          CLOUDY    59  59 100 S9        29.65R
ABINGDON*      MOCLDY    60  60 100 SE6       29.65F
$$

MDZ021>025-VAZ099-100-241200-
SOUTHERN MARYLAND AND THE DELMARVA PENINSULA

CITY           SKY/WX    TMP DP  RH WIND       PRES   REMARKS
PATUXENT RIVER CLOUDY    59  59 100 NE7       29.69S
BAY BRIDGE APT CLOUDY    57  55  94 E3        29.72R
LEONARDTOWN    CLOUDY    57  55  94 CALM      29.71S
DOVER          LGT RAIN  58  58 100 NE7       29.69S
GEORGETOWN     CLOUDY    59  57  93 N8        29.70R
EASTON         DRIZZLE   57  55  94 NE3       29.74R
CAMBRIDGE      CLOUDY    57  57 100 NE5       29.70R FOG
SALISBURY      CLOUDY    58  58 100 NE6       29.68R
OCEAN CITY     CLOUDY    58  57  97 NE10      29.69R
WALLOPS ISLAND CLOUDY    58  58 100 N12       29.68S
ACCOMACK*      CLOUDY    59  47  63 CALM      29.68S
$$

NCZ012>017-030>032-241200-
NORTH CENTRAL AND EASTERN NORTH CAROLINA

CITY           SKY/WX    TMP DP  RH WIND       PRES   REMARKS
ROANOKE RAPIDS CLOUDY    61  61 100 N3        29.67S FOG
RALEIGH        CLOUDY    65  64  97 CALM      29.68R
ELIZABETH CITY CLOUDY    63  63 100 N7        29.66R
AHOSKIE*       DRIZZLE   61  61  99 N3        29.67S
EDENTON*       CLOUDY    65  63  94 CALM      29.67R FOG
CURRITUCK*     CLOUDY   N/A N/A N/A N6        29.67R
KILL DEVIL HLS CLOUDY    68  68 100 CALM      29.65R
MANTEO         PTSUNNY   68  67  95 W5        29.66R
CAPE HATTERAS  NOT AVBL
TARBORO*       NOT AVBL
GOLDSBORO      CLOUDY    67  67 100 SW5       29.66R
WASHINGTON     CLOUDY    66  66  98 CALM      29.66R
GREENVILLE     CLOUDY    66  66 100 W3        29.70R
NEW BERN       CLOUDY    68  68 100 SW3       29.69R
WILMINGTON     LGT RAIN  70  68  93 W8        29.68R
$$

VAZ048-241200-
ELSEWHERE

CITY           SKY/WX    TMP DP  RH WIND       PRES   REMARKS
HARRISBURG PA  PTSUNNY   58  55  90 CALM      29.73R FOG
BALTIMORE      PTSUNNY   57  55  93 N5        29.72R
ANNAPOLIS      CLOUDY    59  57  93 NE3       29.71R
ANDREWS AFB    DRIZZLE   55  54  94 N6        29.71S
PHILADELPHIA   CLOUDY    59  52  77 NE9       29.72R
HENDERSON NC   CLOUDY    58  57  98 NE6       29.68R FOG
GREENSBORO     LGT RAIN  61  61 100 NE6       29.67R FOG
ROCKY MOUNT    CLOUDY    64  64 100 CALM      29.67R FOG
$$

VAZ100-241200-
MARINE

STATION/POSITION TIME  TEMP    WIND        PRES    WAVE   SWELL
                       AIR SEA DIR/SP/G            HT/PER HT/PER
                 (UTC) (F)     (DEG/KT/KT) (MB)    (FT/S) (FT/S)
CAPE MAY NJ      1048   58 60   40/  3/  6 1004.9R
LEWES DE         1048   59 62   50/ 11/ 13 1005.1S
15NM E FENWICK I 1050   57 56   10/ 14/ 16 1004.9R   4/ 5   2/10
WACHAPREAGUE VA  1048   60 64   40/ 17/ 20 1004.4R
THOMAS POINT MD  1100   57 64   60/  9/ 10   N/A
GOOSES REEF MD   1100   59 62   60/ 10/ 12 1006.4    1/ 2
COVE POINT MD    1048   58      40/  9/ 12 1006.0F
SOLOMONS ISLAND  1048   59 67   10/  4/  6   N/A
BISHOPS HEAD MD  1048   59 65   20/  6/ 11 1005.7R
PINEY POINT MD   1048           60/  3/  3   N/A
POTOMAC MD       1050   60      30/ 10/ 12 1004.7R
CAMBRIDGE MD     1042   57 67                N/A
LEWISETTA VA     1048   60 67   60/  8/ 11 1005.7R
RAPPAHANNOCK LGT 1048           30/ 12/ 13 1006.0R
STINGRAY PT      1050   60      60/ 16/ 17 1004.5F
YORK RVR RNG VA  1048   61      30/ 12/ 14 1004.6R
YORKTOWN VA      1048   61 68   60/  5/ 11 1004.9R
JAMESTOWN VA     1050   60     360/  4/  6   N/A
DOMINION TERM VA 1048   61      50/  3/  7 1005.2R
KIPTOPEKE VA     1048      65   50/  8/ 12   N/A
CHES BAY BRIDGE  1048   61 66   40/ 16/ 20 1004.5R
CAPE HENRY VA    1048   60      40/ 17/ 20   N/A
WILLOUBY STN VA  1048   61      30/ 12/ 14 1004.8R
S CRANEY ISL VA  1048   62      30/  9/ 11 1004.6R
CAPE HENRY BUOY  1042      61                N/A     5/ 5
1ST LANDING BUOY 1050   61                 1004.7R
CAPE CHARLES BUO 1051      62                N/A     4/ 5
64NM E OF VA BCH 1050   62 64  320/  8/ 10 1004.4R   5/ 7   5/ 7
DUCK PIER NC     1048   62 61  360/ 11/ 13 1003.8R
44100 DUCK FRF   1035      65                N/A     4/ 7   2/11
44056 DUCK FRF   1030      64                N/A     3/ 5   2/11
OREGON INLET NC  1042   70 71  270/  8/ 11 1003.9R
HATTERAS NC      1048   72 73  240/  8/ 13 1004.2R
DIAMOND SHLS NC  1050   74 74  240/ 16/ 17 1004.2R   6/ 5   2/11
CAPE LOOKOUT NC  1000   72     280/ 13/ 15 1004.0R
$$




USA.gov is the U.S. government's official web portal to all federal, state and local government web resources and services.